Time,TemperatureF,DewpointF,PressureIn,WindDirection,WindDirectionDegrees,WindSpeedMPH,WindSpeedGustMPH,Humidity,HourlyPrecipIn,Conditions,Clouds,dailyrainin,SoftwareType,DateUTC
2013-09-11 00:00:00,80.6,62.9,30.05,North,0,0.0,0.0,55,0.00,,,0.00,WUHU216HW,2013-09-11 05:00:00,
2013-09-11 00:05:00,80.6,62.9,30.05,North,0,0.0,0.0,55,0.00,,,0.00,WUHU216HW,2013-09-11 05:05:00,
2013-09-11 00:30:00,80.1,62.9,30.05,North,0,0.0,0.0,56,0.00,,,0.00,WUHU216HW,2013-09-11 05:30:00,
2013-09-11 00:35:00,80.1,62.9,30.05,North,0,0.0,0.0,56,0.00,,,0.00,WUHU216HW,2013-09-11 05:35:00,
2013-09-11 01:00:00,79.4,63.9,30.05,North,0,0.0,0.0,59,0.00,,,0.00,WUHU216HW,2013-09-11 06:00:00,
2013-09-11 01:05:00,79.4,63.9,30.05,North,0,0.0,0.0,59,0.00,,,0.00,WUHU216HW,2013-09-11 06:05:00,
2013-09-11 01:30:00,79.2,64.6,30.06,North,0,0.0,0.0,61,0.00,,,0.00,WUHU216HW,2013-09-11 06:30:00,
2013-09-11 01:35:00,79.2,64.6,30.06,North,0,0.0,0.0,61,0.00,,,0.00,WUHU216HW,2013-09-11 06:35:00,
2013-09-11 02:00:00,78.5,64.9,30.07,North,0,0.0,0.0,63,0.00,,,0.00,WUHU216HW,2013-09-11 07:00:00,
2013-09-11 02:01:00,78.5,64.9,30.07,North,0,0.0,0.0,63,0.00,,,0.00,WUHU216HW,2013-09-11 07:01:00,
2013-09-11 02:06:00,78.5,64.9,30.07,North,0,0.0,0.0,63,0.00,,,0.00,WUHU216HW,2013-09-11 07:06:00,
2013-09-11 02:30:00,77.9,64.8,30.06,North,0,0.0,0.0,64,0.00,,,0.00,WUHU216HW,2013-09-11 07:30:00,
2013-09-11 02:35:00,77.9,64.8,30.06,North,0,0.0,0.0,64,0.00,,,0.00,WUHU216HW,2013-09-11 07:35:00,
2013-09-11 03:00:00,77.8,65.5,30.06,North,0,0.0,0.0,66,0.00,,,0.00,WUHU216HW,2013-09-11 08:00:00,
2013-09-11 03:05:00,77.8,65.5,30.06,North,0,0.0,0.0,66,0.00,,,0.00,WUHU216HW,2013-09-11 08:05:00,
2013-09-11 03:30:00,77.8,65.5,30.06,North,0,0.0,0.0,66,0.00,,,0.00,WUHU216HW,2013-09-11 08:30:00,
2013-09-11 03:35:00,77.8,65.5,30.06,North,0,0.0,0.0,66,0.00,,,0.00,WUHU216HW,2013-09-11 08:35:00,
2013-09-11 04:00:00,78.1,66.2,30.06,North,0,0.0,0.0,67,0.00,,,0.00,WUHU216HW,2013-09-11 09:00:00,
2013-09-11 04:05:00,78.1,66.2,30.06,North,0,0.0,0.0,67,0.00,,,0.00,WUHU216HW,2013-09-11 09:05:00,
2013-09-11 04:30:00,77.6,66.6,30.06,North,0,0.0,0.0,69,0.00,,,0.00,WUHU216HW,2013-09-11 09:30:00,
2013-09-11 04:35:00,77.6,66.6,30.06,North,0,0.0,0.0,69,0.00,,,0.00,WUHU216HW,2013-09-11 09:35:00,
2013-09-11 05:00:00,77.4,67.0,30.06,North,0,0.0,0.0,70,0.00,,,0.00,WUHU216HW,2013-09-11 10:00:00,
2013-09-11 05:05:00,77.4,67.0,30.06,North,0,0.0,0.0,70,0.00,,,0.00,WUHU216HW,2013-09-11 10:05:00,
2013-09-11 05:30:00,77.0,67.0,30.05,North,0,0.0,0.0,71,0.00,,,0.00,WUHU216HW,2013-09-11 10:30:00,
2013-09-11 05:35:00,77.0,67.0,30.05,North,0,0.0,0.0,71,0.00,,,0.00,WUHU216HW,2013-09-11 10:35:00,
2013-09-11 06:00:00,76.7,66.6,30.06,North,0,0.0,0.0,71,0.00,,,0.00,WUHU216HW,2013-09-11 11:00:00,
2013-09-11 06:05:00,76.7,66.6,30.06,North,0,0.0,0.0,71,0.00,,,0.00,WUHU216HW,2013-09-11 11:05:00,
2013-09-11 06:30:00,75.8,66.9,30.07,North,0,0.0,0.0,74,0.00,,,0.00,WUHU216HW,2013-09-11 11:30:00,
2013-09-11 06:35:00,75.8,66.9,30.07,North,0,0.0,0.0,74,0.00,,,0.00,WUHU216HW,2013-09-11 11:35:00,
2013-09-11 07:00:00,75.1,67.0,30.07,North,0,0.0,0.0,76,0.00,,,0.00,WUHU216HW,2013-09-11 12:00:00,
2013-09-11 07:05:00,75.1,67.0,30.07,North,0,0.0,0.0,76,0.00,,,0.00,WUHU216HW,2013-09-11 12:05:00,
2013-09-11 07:30:00,74.7,67.1,30.08,North,0,0.0,0.0,77,0.00,,,0.00,WUHU216HW,2013-09-11 12:30:00,
2013-09-11 07:35:00,74.7,67.1,30.08,North,0,0.0,0.0,77,0.00,,,0.00,WUHU216HW,2013-09-11 12:35:00,
2013-09-11 08:00:00,76.9,68.3,30.08,North,0,0.0,0.0,75,0.00,,,0.00,WUHU216HW,2013-09-11 13:00:00,
2013-09-11 08:05:00,76.9,68.3,30.08,North,0,0.0,0.0,75,0.00,,,0.00,WUHU216HW,2013-09-11 13:05:00,
2013-09-11 08:30:00,78.5,69.0,30.09,North,0,0.0,0.0,73,0.00,,,0.00,WUHU216HW,2013-09-11 13:30:00,
2013-09-11 08:35:00,78.5,69.0,30.09,North,0,0.0,0.0,73,0.00,,,0.00,WUHU216HW,2013-09-11 13:35:00,
2013-09-11 09:00:00,80.8,70.6,30.09,North,0,0.0,0.0,71,0.00,,,0.00,WUHU216HW,2013-09-11 14:00:00,
2013-09-11 09:05:00,80.8,70.6,30.09,North,0,0.0,0.0,71,0.00,,,0.00,WUHU216HW,2013-09-11 14:05:00,
2013-09-11 09:30:00,82.3,69.7,30.10,North,0,0.0,0.0,66,0.00,,,0.00,WUHU216HW,2013-09-11 14:30:00,
2013-09-11 09:35:00,82.3,69.7,30.10,North,0,0.0,0.0,66,0.00,,,0.00,WUHU216HW,2013-09-11 14:35:00,
2013-09-11 10:00:00,83.7,68.4,30.11,North,0,0.0,0.0,60,0.00,,,0.00,WUHU216HW,2013-09-11 15:00:00,
2013-09-11 10:05:00,83.7,68.4,30.11,North,0,0.0,0.0,60,0.00,,,0.00,WUHU216HW,2013-09-11 15:05:00,
2013-09-11 10:30:00,85.1,68.7,30.11,North,0,0.0,0.0,58,0.00,,,0.00,WUHU216HW,2013-09-11 15:30:00,
2013-09-11 10:35:00,85.1,68.7,30.11,North,0,0.0,0.0,58,0.00,,,0.00,WUHU216HW,2013-09-11 15:35:00,
2013-09-11 11:00:00,85.7,68.7,30.11,North,0,0.0,0.0,57,0.00,,,0.00,WUHU216HW,2013-09-11 16:00:00,
2013-09-11 11:05:00,85.7,68.7,30.11,North,0,0.0,0.0,57,0.00,,,0.00,WUHU216HW,2013-09-11 16:05:00,
2013-09-11 11:30:00,87.3,68.6,30.10,North,0,0.0,0.0,54,0.00,,,0.00,WUHU216HW,2013-09-11 16:30:00,
2013-09-11 11:35:00,87.3,68.6,30.10,North,0,0.0,0.0,54,0.00,,,0.00,WUHU216HW,2013-09-11 16:35:00,
2013-09-11 12:00:00,88.6,69.2,30.10,North,0,0.0,0.0,53,0.00,,,0.00,WUHU216HW,2013-09-11 17:00:00,
2013-09-11 12:05:00,88.6,69.2,30.10,North,0,0.0,0.0,53,0.00,,,0.00,WUHU216HW,2013-09-11 17:05:00,
2013-09-11 12:30:00,89.3,68.2,30.09,North,0,0.0,0.0,50,0.00,,,0.00,WUHU216HW,2013-09-11 17:30:00,
2013-09-11 12:35:00,89.3,68.2,30.09,North,0,0.0,0.0,50,0.00,,,0.00,WUHU216HW,2013-09-11 17:35:00,
2013-09-11 13:00:00,89.1,68.7,30.09,North,0,0.0,0.0,51,0.00,,,0.00,WUHU216HW,2013-09-11 18:00:00,
2013-09-11 13:05:00,89.1,68.7,30.09,North,0,0.0,0.0,51,0.00,,,0.00,WUHU216HW,2013-09-11 18:05:00,
2013-09-11 13:30:00,90.4,69.2,30.07,North,0,0.0,0.0,50,0.00,,,0.00,WUHU216HW,2013-09-11 18:30:00,
2013-09-11 13:35:00,90.4,69.2,30.07,North,0,0.0,0.0,50,0.00,,,0.00,WUHU216HW,2013-09-11 18:35:00,
2013-09-11 14:00:00,91.4,68.2,30.06,North,0,0.0,0.0,47,0.00,,,0.00,WUHU216HW,2013-09-11 19:00:00,
2013-09-11 14:05:00,91.4,68.2,30.06,North,0,0.0,0.0,47,0.00,,,0.00,WUHU216HW,2013-09-11 19:05:00,
2013-09-11 14:30:00,93.1,67.2,30.05,North,0,0.0,0.0,43,0.00,,,0.00,WUHU216HW,2013-09-11 19:30:00,
2013-09-11 14:35:00,93.1,67.2,30.05,North,0,0.0,0.0,43,0.00,,,0.00,WUHU216HW,2013-09-11 19:35:00,
2013-09-11 15:00:00,93.4,66.8,30.03,North,0,0.0,0.0,42,0.00,,,0.00,WUHU216HW,2013-09-11 20:00:00,
2013-09-11 15:05:00,93.4,66.8,30.03,North,0,0.0,0.0,42,0.00,,,0.00,WUHU216HW,2013-09-11 20:05:00,
2013-09-11 15:30:00,93.8,66.5,30.01,North,0,0.0,0.0,41,0.00,,,0.00,WUHU216HW,2013-09-11 20:30:00,
2013-09-11 15:35:00,93.8,66.5,30.01,North,0,0.0,0.0,41,0.00,,,0.00,WUHU216HW,2013-09-11 20:35:00,
2013-09-11 16:00:00,93.4,66.2,30.01,North,0,0.0,0.0,41,0.00,,,0.00,WUHU216HW,2013-09-11 21:00:00,
2013-09-11 16:05:00,93.4,66.2,30.01,North,0,0.0,0.0,41,0.00,,,0.00,WUHU216HW,2013-09-11 21:05:00,
2013-09-11 16:30:00,92.7,66.8,30.00,North,0,0.0,0.0,43,0.00,,,0.00,WUHU216HW,2013-09-11 21:30:00,
2013-09-11 16:35:00,92.7,66.8,30.00,North,0,0.0,0.0,43,0.00,,,0.00,WUHU216HW,2013-09-11 21:35:00,
2013-09-11 17:00:00,85.0,69.0,30.00,North,0,0.0,0.0,59,0.01,,,0.00,WUHU216HW,2013-09-11 22:00:00,
2013-09-11 17:05:00,85.0,69.0,30.00,North,0,0.0,0.0,59,0.01,,,0.00,WUHU216HW,2013-09-11 22:05:00,
2013-09-11 17:30:00,82.8,71.1,29.99,North,0,0.0,0.0,68,0.01,,,0.02,WUHU216HW,2013-09-11 22:30:00,
2013-09-11 17:35:00,82.8,71.1,29.99,North,0,0.0,0.0,68,0.01,,,0.02,WUHU216HW,2013-09-11 22:35:00,
2013-09-11 18:00:00,84.1,71.9,29.99,North,0,0.0,0.0,67,0.00,,,0.02,WUHU216HW,2013-09-11 23:00:00,
2013-09-11 18:05:00,84.1,71.9,29.99,North,0,0.0,0.0,67,0.00,,,0.02,WUHU216HW,2013-09-11 23:05:00,
2013-09-11 18:30:00,85.3,72.2,29.99,North,0,0.0,0.0,65,0.00,,,0.02,WUHU216HW,2013-09-11 23:30:00,
2013-09-11 18:35:00,85.3,72.2,29.99,North,0,0.0,0.0,65,0.00,,,0.02,WUHU216HW,2013-09-11 23:35:00,
2013-09-11 19:00:00,86.8,69.1,29.99,North,0,0.0,0.0,56,0.00,,,0.02,WUHU216HW,2013-09-12 00:00:00,
2013-09-11 19:05:00,86.8,69.1,29.99,North,0,0.0,0.0,56,0.00,,,0.02,WUHU216HW,2013-09-12 00:05:00,
2013-09-11 19:30:00,86.4,68.9,29.99,North,0,0.0,0.0,56,0.00,,,0.02,WUHU216HW,2013-09-12 00:30:00,
2013-09-11 19:35:00,86.4,68.9,29.99,North,0,0.0,0.0,56,0.00,,,0.02,WUHU216HW,2013-09-12 00:35:00,
2013-09-11 20:00:00,84.4,68.0,29.99,North,0,0.0,0.0,58,0.00,,,0.02,WUHU216HW,2013-09-12 01:00:00,
2013-09-11 20:05:00,84.4,68.0,29.99,North,0,0.0,0.0,58,0.00,,,0.02,WUHU216HW,2013-09-12 01:05:00,
2013-09-11 20:30:00,83.9,67.5,30.00,North,0,0.0,0.0,58,0.00,,,0.02,WUHU216HW,2013-09-12 01:30:00,
2013-09-11 20:35:00,83.9,67.5,30.00,North,0,0.0,0.0,58,0.00,,,0.02,WUHU216HW,2013-09-12 01:35:00,
2013-09-11 21:00:00,83.5,67.1,30.01,North,0,0.0,0.0,58,0.00,,,0.02,WUHU216HW,2013-09-12 02:00:00,
2013-09-11 21:05:00,83.5,67.1,30.01,North,0,0.0,0.0,58,0.00,,,0.02,WUHU216HW,2013-09-12 02:05:00,
2013-09-11 21:30:00,83.5,67.1,30.02,North,0,0.0,0.0,58,0.00,,,0.02,WUHU216HW,2013-09-12 02:30:00,
2013-09-11 21:35:00,83.5,67.1,30.02,North,0,0.0,0.0,58,0.00,,,0.02,WUHU216HW,2013-09-12 02:35:00,
2013-09-11 22:00:00,83.2,66.8,30.03,North,0,0.0,0.0,58,0.00,,,0.02,WUHU216HW,2013-09-12 03:00:00,
2013-09-11 22:05:00,83.2,66.8,30.03,North,0,0.0,0.0,58,0.00,,,0.02,WUHU216HW,2013-09-12 03:05:00,
2013-09-11 22:30:00,82.8,67.0,30.04,North,0,0.0,0.0,59,0.00,,,0.02,WUHU216HW,2013-09-12 03:30:00,
2013-09-11 22:35:00,82.8,67.0,30.04,North,0,0.0,0.0,59,0.00,,,0.02,WUHU216HW,2013-09-12 03:35:00,
2013-09-11 23:00:00,82.4,67.1,30.04,North,0,0.0,0.0,60,0.00,,,0.02,WUHU216HW,2013-09-12 04:00:00,
2013-09-11 23:01:00,82.4,67.1,30.04,North,0,0.0,0.0,60,0.00,,,0.02,WUHU216HW,2013-09-12 04:01:00,
2013-09-11 23:06:00,82.4,67.1,30.04,North,0,0.0,0.0,60,0.00,,,0.02,WUHU216HW,2013-09-12 04:06:00,
2013-09-11 23:30:00,81.7,67.0,30.03,North,0,0.0,0.0,61,0.00,,,0.02,WUHU216HW,2013-09-12 04:30:00,
2013-09-11 23:35:00,81.7,67.0,30.03,North,0,0.0,0.0,61,0.00,,,0.02,WUHU216HW,2013-09-12 04:35:00,